Location: Blackwater Beach
(38.5801°N, 75.1577°W)
Time: 03:12:33
(UTC+00:00)

Cosmos 2297 Rocket - Pass Details

Date: 24 May 2026
Orbit: 838 x 842 km, 71.0° (Epoch: 9 June)

Event Time Altitude Azimuth Distance (km) Brightness Sun altitude
Exits shadow 02:26:25 41° 159° (SSE) 1,194 2.5 -20.9°
Maximum altitude 02:28:02 56° 108° (ESE) 994 2.2 -21.1°
Drops below altitude 10° 02:33:32 10° 31° (NNE) 2,460 4.9 -21.7°
Sets 02:36:01 0° 28° (NNE) 3,399 5.7 -22.0°
